SCP
0 0 0 0 0 0 0 0 0 0 0 0 0 0 0 0 0 0 0 0 0 0 0 0 0 0 0 0 0 0 0 0 0 0 0 0 0 0
0 0 0 0 0 0 0 0 0 0 0 0 0 0 0 0 0 0 0 0 0 0 0 0 0 0 0 0 0 0 0 0 0 0 0 0 0 0
0 0 0 0 0 0 0 0 0 0 0 0 0 0 0 0 0 0 0 0 0 0 0 0 0 0 0 0 0 0 0 0 0 0 0 0 0 0
0 0 0 0 0 0 0 0 0 0 0 0 0 0 0 0 0 0 0 0 0 0 0 0 0 0 0 0 0 0 0 0 0 0 0 0 0 0
0 0 0 0 0 0 0 0 0 0 0 0 0 0 0 0 0 0 0 0 0 0 0 0 0 0 0 0 0 0 0 0 0 0 0 0 0 0
0 0 0 0 0 0 0 0 0 0 0 0 0 0 -0 0 0 0 0 0 0 0 0 0 0 0 0 0 0 0 0 0 0 0 0 0 0 0
0 0 0 0 0 0 0 0 0 0 0 0 0 0 0 0 0 0 0 0 0 0 0 0 0 0 0 0 0 0 0 0 0 0 0 0 0 0
0 0 0 0 0 0 0 0 0 0 0 0 0 0 0 0 0 0 0 0 0 0 0 0 0 0 0 0 0 0 0 0 0 0 0 0 0 0
0 0 0 0 0 0 0 0 0 0 0 0 0 0 0 0 0 0 0 0 0 0 0 0 0 0 0 0 0 0 0 0 0 0 0 0 0 0
0 0 0 0 0 0 0 0 0 0 0 0 0 0 0 0 0 0 0 0 0 0 0 0 0 0 0 0 0 0 0 0 0 0 0 0 0 0
0 0 0 0 0 0 0 0 0 0 0 0 0 0 0 0 0 0 0 0 0 0 0 0 0 0 0 0 0 0 0 0 0 0 0 0 0 0
0 0 0 0 0 0 0 0 0 0 0 0 0 0 0 0 0 0 0 0 0 0 0 0 0 0 0 0 0 0 0 0 0 0 0 0 0 0
0 0 0 0 0 0 0 0 0 0 0 0 0 0 0 0 0 0 0 0 0 0 0 0 0 0 0 0 0 0 0 0 0 0 0 0 0 0
0 0 0 0 0 0 0 0 0 0 0 0 0 0 0 0 0 0 0 0 0 0 0 0 0 0 0 0 0 0 0 0 0 0 0 0 0 0
0 0 0 0 0 0 0 0 0 0 0 0 0 0 0 0 0 0 0 0 0 0 0 0 0 0 0 0 0 0 0 0 0 0 0 0 0 0
0 0 0 0 0 0 0 0 0 0 0 0 0 0 0 0 0 0 0 0 0 0 0 0 0 0 0 0 0 0 0 0 0 0 0 0 0 0
0 0 0 0 0 0 0 0 0 0 0 0 0 0 0 0 0 0 0 0 0 0 0 0 0 0 0 0 0 0 0 0 0 0 0 0 0 0
0 0 0 0 0 0 0 0 0 0 0 0 0 0 0 0 0 0 0 0 0 0 0 0 0 0 0 0 0 0 0 0 0 0 0 0 0 0
0 0 0 0 0 0 0 0 0 0 0 0 0 0 0 0 0 0 0 0 0 0 0 0 0 0 0 0 0 0 0 0 0 0 0 0 0 0
0 0 0 0 0 0 0 0 0 0 0 0 0 0 0 0 0 0 0 0 0 0 0 0 0 0 0 0 0 0 0 0 0 0 0 0 0 0
0 0 0 0 0 0 0 0 0 0 0 0 0 0 0 0 0 0 0 0 0 0 0 0 0 0 0 0 0 0 0 0 0 0 0 0 0 0
0 0 0 0 0 0 0 0 0 0 0 0 0 0 0 0 0 0 0 0 0 0 0 0 0 0 0 0 0 0 0 0 0 0 0 0 0 0
0 0 0 0 0 0 0 0 0 0 0 0 0 0 0 0 0 0 0 0 0 0 0 0 0 0 0 0 0 0 0 0 0 0 0 0 0 0
Wind_Speed
2 3 2 2 2 2 3 4 4 2 2 2 2 2 2 2 4 3 3 4 5 5 5 5 5 5 5 5 5 5 4 4 4 5 5 5 6 6
1 1 1 1 1 1 2 2 3 3 3 2 2 2 2 2 4 3 3 5 6 6 5 4 4 4 4 4 4 4 4 4 5 5 4 4 4 5
0 1 1 1 1 1 2 2 2 2 2 2 1 1 2 2 2 2 2 2 2 5 5 5 5 4 3 3 4 4 4 4 5 5 5 4 4 5
2 2 2 1 2 2 2 2 2 3 3 2 1 1 2 2 2 2 2 2 2 4 6 6 5 4 3 3 4 3 4 4 5 5 5 5 5 5
3 3 2 2 1 1 1 1 1 1 2 3 2 1 1 1 1 1 1 1 3 3 5 5 5 4 4 4 4 4 4 4 4 5 5 5 5 4
2 2 2 2 2 2 1 1 2 1 1 2 1 1 1 0 1 1 1 1 2 2 2 2 3 4 4 4 4 5 5 5 5 5 5 5 4 4
1 2 2 3 3 2 2 2 2 2 2 2 1 1 1 1 2 1 1 1 2 1 1 2 1 2 3 4 5 6 6 6 6 6 5 5 4 4
2 2 2 2 3 4 3 3 4 4 3 3 2 3 3 3 2 2 1 0 2 2 1 2 2 3 3 3 5 7 7 7 7 7 6 5 5 5
2 2 1 1 1 2 2 3 3 4 5 5 4 5 4 5 4 3 3 3 4 3 2 3 2 3 3 4 6 7 7 8 7 7 7 6 6 5
2 3 3 2 2 2 1 1 2 3 4 4 5 6 5 5 6 6 5 3 2 2 3 2 2 3 3 3 5 7 8 8 8 7 7 7 6 6
3 3 3 3 3 3 2 2 2 3 3 4 5 5 6 6 5 3 2 2 2 3 2 3 2 2 2 3 3 6 7 8 8 8 8 8 7 6
2 2 3 3 4 4 4 3 4 4 2 2 2 3 3 4 6 6 5 4 2 3 3 3 2 1 2 2 2 2 3 6 7 8 9 8 8 4
2 2 3 4 4 5 5 5 6 4 3 2 2 2 2 2 3 4 5 5 4 4 3 3 2 2 2 2 2 2 2 2 3 4 6 8 8 7
4 3 3 5 5 5 4 5 5 3 1 1 2 3 3 3 3 4 5 4 4 5 4 4 3 4 3 2 3 2 2 2 2 3 3 4 6 7
3 4 5 5 4 4 5 5 3 2 2 2 3 4 3 3 3 2 3 3 3 4 3 3 3 3 3 4 3 2 2 2 3 3 3 3 3 3
3 3 4 4 3 3 3 3 2 3 3 3 3 3 2 1 2 2 2 2 2 3 3 2 4 4 3 3 3 3 3 2 2 4 3 3 3 3
2 1 1 1 2 2 2 2 2 2 2 2 2 2 2 2 2 2 2 2 2 3 3 2 1 2 3 3 3 3 3 3 2 3 3 3 4 4
3 2 2 3 3 3 3 3 2 3 3 3 3 3 3 3 3 2 2 2 3 3 3 2 1 0 1 2 4 4 3 3 2 2 3 3 4 3
3 3 3 3 4 3 3 3 4 4 3 3 3 3 3 3 3 3 2 2 3 3 3 2 2 2 3 4 4 5 5 3 2 2 3 4 4 4
2 3 3 4 3 3 4 4 4 3 3 3 4 4 3 3 3 3 3 3 3 3 3 2 3 4 5 5 4 3 5 5 4 4 4 3 3 3
3 3 4 4 4 4 4 4 4 4 4 4 4 4 4 3 4 4 4 5 4 3 4 5 5 6 3 1 1 3 3 5 6 5 4 3 2 2
3 4 4 4 4 3 3 3 4 3 4 4 4 4 4 4 4 4 4 4 4 4 5 4 3 2 2 3 4 5 4 3 4 5 5 6 5 5
4 4 4 4 3 3 3 3 4 3 3 3 3 3 3 4 4 4 4 4 4 4 4 3 2 2 3 4 4 4 4 4 3 2 3 6 8 9
Wind_Direction
232 230 225 230 209 192 178 172 172 200 247 250 248 247 210 201 214 205 209 214 222 235 238 237 236 239 240 237 227 215 209 208 206 204 208 214 219 221
221 213 229 221 204 193 185 186 179 177 212 230 223 224 206 200 201 199 214 217 225 226 227 234 235 236 236 223 207 201 198 200 196 198 204 213 214 213
216 170 229 204 192 203 184 181 182 170 194 247 228 213 190 208 213 212 212 221 233 227 226 233 233 230 222 201 193 195 198 204 204 204 208 216 215 213
208 194 225 206 195 198 185 191 190 182 175 206 231 207 213 210 201 211 220 213 224 229 224 231 232 226 213 201 194 193 198 206 211 210 215 221 222 217
202 197 212 188 212 216 189 190 196 178 159 167 198 203 217 204 166 233 231 262 239 233 229 234 234 229 222 213 202 200 205 209 211 212 217 225 229 222
201 196 201 192 203 204 194 199 177 154 145 147 158 176 206 218 136 188 285 280 267 266 254 237 230 231 231 220 217 214 218 221 221 218 217 223 226 225
220 216 213 201 199 199 195 192 170 160 157 163 174 167 197 180 212 211 220 267 276 260 276 262 239 243 239 238 230 225 224 225 226 225 221 220 223 225
223 239 235 222 230 216 210 195 183 178 185 185 196 199 213 210 199 194 189 198 278 258 191 258 218 238 245 236 231 226 227 227 226 225 222 220 220 214
210 219 241 262 235 236 235 228 224 212 191 185 200 214 207 207 191 200 206 209 229 230 174 253 247 245 250 245 237 233 232 230 227 224 219 215 213 211
219 213 216 237 238 224 214 233 250 242 224 212 215 223 216 206 199 202 207 219 258 251 172 222 249 249 259 251 242 231 229 226 225 222 217 213 211 212
245 229 218 220 240 212 188 223 269 285 278 250 238 236 228 214 192 167 176 180 247 254 202 198 235 259 270 264 256 238 231 227 223 223 220 215 212 212
276 261 237 229 233 210 198 206 236 258 277 303 295 274 246 227 205 192 190 193 214 244 220 189 212 185 270 269 255 245 236 235 230 229 225 218 209 202
252 268 270 262 251 235 217 214 229 233 237 244 266 277 273 255 234 218 204 196 205 232 217 177 197 195 203 261 282 245 225 230 225 232 224 219 211 197
236 245 254 259 257 253 241 247 243 226 217 235 253 259 255 255 250 235 225 220 220 229 218 184 193 196 193 223 264 270 239 230 216 226 224 218 219 215
245 254 255 254 258 258 260 257 243 220 213 234 249 252 246 247 248 243 238 236 253 259 242 202 195 196 195 211 223 234 252 251 217 214 216 211 209 196
256 270 264 258 259 265 274 262 240 227 220 235 246 258 269 266 255 242 236 226 248 279 278 240 207 190 205 217 210 227 223 227 222 214 215 219 208 200
215 256 272 260 264 274 275 268 255 247 243 251 246 254 261 263 257 248 236 228 240 260 277 286 251 214 210 203 216 226 223 231 225 204 195 223 227 215
166 221 239 240 242 246 252 262 254 245 241 243 245 242 247 253 261 254 233 230 245 252 254 253 229 304 325 288 228 224 225 227 221 194 184 207 237 230
179 227 239 245 249 248 246 246 250 248 238 235 238 242 244 245 247 249 241 242 248 251 255 246 220 203 226 256 264 225 212 214 199 203 208 208 225 231
215 229 243 248 246 246 247 247 252 254 244 242 242 243 239 238 239 238 232 232 238 249 261 255 231 218 220 231 241 252 222 209 201 209 215 218 235 244
237 242 244 244 243 244 247 247 246 246 247 245 247 247 241 235 239 238 236 238 235 240 244 247 244 232 228 197 236 261 255 226 212 205 196 196 216 222
244 248 251 248 243 244 247 247 247 249 250 246 248 248 244 237 239 239 236 237 237 237 246 255 253 220 209 217 234 246 254 257 245 234 221 201 191 201
242 246 252 254 248 244 247 247 246 250 247 246 249 250 246 245 242 236 235 235 239 241 246 251 251 227 226 226 231 238 242 245 246 246 259 249 229 226